[[{"header":{"parameterUnit":"m.s-1","parameterCategory":1,"la1":30.2991,"la2":30.254,"lo1":-89.0895,"lo2":-89.0444,"dy":0.0017,"dx":0.0017,"nx":28,"ny":28,"refTime":"2023-09-09T03:00:00:Z","depth":0,"parameterNumber":2,"parameterNumberName":"U-component_of_WINDS"},"data":[0,0,0,0,0,0,0,0,0,0,0,0,0,0,0,0,0,0,0,0,0,0,0,0,0,0,0,0,0,0,0,0,0,0,0,0,0,0,0,0,0,0,0,0,0,0,0,0,0,0,0,0,0,0,0,0,0,0,1.2463,1.2464,0,1.2569,1.2571,1.2572,1.2591,1.259,1.2589,1.2588,1.2702,1.2705,1.2709,0,0,0,0,0,0,0,0,0,0,0,0,0,1.2281,1.2285,1.2463,1.2464,1.2466,1.2569,1.2571,1.2572,1.2591,1.259,1.2589,1.2588,1.27,1.2705,1.2709,0,0,0,0,0,0,0,0,0,0,0,0,0,1.2371,1.2286,1.2463,1.2487,1.2491,1.2569,1.2571,1.2572,1.2591,1.259,1.2588,1.2587,1.2699,1.2704,1.271,1.2772,0,0,1.2728,1.273,0,0,0,0,0,0,0,0,1.2366,1.2378,1.2482,1.2486,1.249,1.2565,1.2548,1.264,1.2591,1.2553,1.2588,1.2587,1.2658,1.2667,1.269,1.2778,1.2783,1.2728,1.2732,1.2734,1.2736,0,0,0,0,0,0,0,1.236,1.2374,1.2505,1.2484,1.2488,1.2495,1.2506,1.2566,1.2612,1.2556,1.2558,1.257,1.2659,1.2684,1.2693,1.2784,1.2728,1.2733,1.2737,1.2739,1.2931,1.2932,0,0,0,0,0,0,1.2349,1.2368,1.2502,1.2508,1.2423,1.2499,1.2512,1.2542,1.2611,1.262,1.2571,1.2571,1.2675,1.2686,1.2697,1.2775,1.2734,1.274,1.2743,1.2929,1.2931,1.2933,0,0,0,0,0,0,1.2345,1.236,1.2497,1.2439,1.2457,1.2504,1.2538,1.2545,1.257,1.2622,1.2631,1.2587,1.2674,1.2688,1.2753,1.2779,1.2742,1.2747,1.2927,1.293,1.2932,1.2931,0,0,0,0,0,0,1.2339,1.2359,1.2382,1.2439,1.246,1.2551,1.254,1.2548,1.2579,1.258,1.264,1.2649,1.2674,1.2745,1.2759,1.2786,1.2752,1.2925,1.2928,1.2931,1.2929,1.2933,1.2936,0,0,0,0,0,1.2333,1.2378,1.2383,1.2399,1.2489,1.2552,1.2564,1.2591,1.2581,1.2605,1.2639,1.2647,1.2774,1.2751,1.2768,1.2797,1.2923,1.2927,1.2931,1.2927,1.2932,1.2936,0,0,0,0,0,0,1.2323,1.2386,1.2392,1.2456,1.2499,1.2555,1.2586,1.2596,1.2643,1.2642,1.2675,1.2688,1.2752,1.2781,1.2755,1.2861,1.2848,1.2855,1.284,1.2845,1.2849,1.284,1.2757,0,0,0,0,0,1.2329,1.2373,1.2426,1.2478,1.2499,1.2539,1.2568,1.2585,1.2631,1.2649,1.2688,1.2733,1.2784,1.2816,1.2865,1.2933,1.2947,1.2962,1.2966,1.2968,1.2974,1.3013,1.302,1.2945,1.2945,1.2945,0,0,1.234,1.238,1.2406,1.2477,1.2512,1.2559,1.2554,1.2604,1.264,1.2657,1.272,1.2751,1.2804,1.2871,1.2902,1.2897,1.2998,1.2973,1.2975,1.2979,1.3018,1.3025,1.3031,1.2947,1.2947,1.2946,0,0,1.2385,1.2419,1.2467,1.2502,1.2554,1.2581,1.2592,1.2648,1.2668,1.2732,1.2746,1.279,1.2876,1.2913,1.2944,1.3004,1.3013,1.302,1.304,1.3077,1.3083,1.3089,1.3111,1.3118,1.3025,1.3025,1.3025,0,1.2393,1.2463,1.249,1.2539,1.2571,1.2588,1.2637,1.2671,1.2737,1.2759,1.2752,1.286,1.2898,1.2974,1.2989,1.3013,1.3028,1.3013,1.308,1.3086,1.3091,1.3113,1.3121,1.3026,1.3026,1.3026,1.3026,0,1.2471,1.2519,1.2552,1.2614,1.2649,1.2698,1.2734,1.2767,1.2782,1.281,1.2876,1.2921,1.298,1.2999,1.3015,1.3078,1.3074,1.3073,1.306,1.3099,1.3119,1.3128,1.3026,1.3026,1.3026,1.3026,0,0,1.2512,1.2589,1.26,1.2629,1.2689,1.2728,1.2779,1.2835,1.2863,1.2909,1.2953,1.3025,1.3025,1.306,1.308,1.3113,1.3159,1.3109,1.3111,1.3116,1.3233,1.3232,1.3241,1.3165,1.3167,1.3169,1.3228,0,1.2564,1.2652,1.2679,1.2755,1.28,1.2818,1.2863,1.2905,1.2933,1.2978,1.3009,1.306,1.3056,1.3077,1.3111,1.3146,1.3183,1.3142,1.3208,1.321,1.3193,1.3252,1.3252,1.3306,1.3237,1.3238,1.3239,0,1.2636,1.2682,1.2761,1.2816,1.2836,1.2875,1.293,1.2971,1.3021,1.3039,1.3078,1.3095,1.3151,1.3135,1.3213,1.3185,1.3214,1.3235,1.3238,1.3245,1.3226,1.326,1.3324,1.3332,1.3252,1.3251,1.325,0,1.2658,1.274,1.2798,1.2822,1.2887,1.2915,1.2944,1.2992,1.3024,1.3072,1.3094,1.3149,1.3179,1.3221,1.3254,1.324,1.3329,1.3316,1.3347,1.3346,1.3364,1.3362,1.3432,1.3383,1.3383,1.3383,1.3383,0,1.2713,1.2761,1.2808,1.2844,1.2899,1.2931,1.2985,1.3015,1.3058,1.3101,1.3121,1.3161,1.3202,1.3248,1.3274,1.3335,1.3349,1.3366,1.3372,1.3364,1.3361,1.3383,1.338,1.3385,1.3385,1.3384,1.3384,0,1.2746,1.278,1.2844,1.2901,1.2917,1.2955,1.3004,1.304,1.3069,1.3124,1.3139,1.3185,1.3241,1.3278,1.3349,1.3367,1.3433,1.3439,1.3416,1.3419,1.3447,1.3444,1.3533,1.3546,1.3488,1.3489,1.3489,0,1.2778,1.2815,1.2876,1.2906,1.2934,1.2982,1.3015,1.3048,1.3082,1.3142,1.3172,1.3229,1.3276,1.3364,1.3405,1.3461,1.3468,1.3495,1.3476,1.3467,1.3468,1.3465,1.3469,1.3498,1.3498,1.3499,1.3499,0,1.2832,1.2847,1.2893,1.2946,1.2985,1.3028,1.3071,1.3095,1.3136,1.3174,1.323,1.3267,1.334,1.3397,1.3456,1.3488,1.3501,1.3505,1.3515,1.3506,1.3491,1.35,1.3424,1.3503,1.3502,1.3502,1.3502,1.3502,1.2866,1.29,1.2948,1.2999,1.3035,1.3076,1.3113,1.3147,1.3194,1.3255,1.3272,1.3331,1.3382,1.3462,1.3495,1.3543,1.354,1.3555,1.3558,1.3561,1.3561,1.3484,1.3554,1.3554,1.3554,1.3554,1.3554,0,1.2921,1.2953,1.3,1.3059,1.31,1.3108,1.3157,1.3191,1.3242,1.3287,1.3333,1.3399,1.3455,1.35,1.3558,1.3587,1.3595,1.3601,1.3599,1.3606,1.3561,1.3546,1.3594,1.3594,1.3594,1.3594,1.3594,1.3594,1.2954,1.3012,1.3034,1.3111,1.3143,1.32,1.3227,1.3265,1.3302,1.3373,1.3419,1.3448,1.3494,1.3555,1.3607,1.3619,1.3639,1.3645,1.3658,1.3614,1.361,1.3605,1.3592,1.3649,1.3649,1.37,1.37,1.3701]},{"header":{"parameterUnit":"m.s-1","parameterCategory":1,"la1":30.2991,"la2":30.254,"lo1":-89.0895,"lo2":-89.0444,"dy":0.0017,"dx":0.0017,"nx":28,"ny":28,"refTime":"2023-09-09T03:00:00:Z","depth":0,"parameterNumber":3,"parameterNumberName":"V-component_of_WINDS"},"data":[0,0,0,0,0,0,0,0,0,0,0,0,0,0,0,0,0,0,0,0,0,0,0,0,0,0,0,0,0,0,0,0,0,0,0,0,0,0,0,0,0,0,0,0,0,0,0,0,0,0,0,0,0,0,0,0,0,0,0.169,0.1691,0,0.1739,0.1739,0.174,0.166,0.1657,0.1654,0.1651,0.1704,0.1707,0.1711,0,0,0,0,0,0,0,0,0,0,0,0,0,0.1529,0.1533,0.169,0.1691,0.1692,0.1739,0.1739,0.174,0.166,0.1657,0.1653,0.165,0.1702,0.1707,0.1712,0,0,0,0,0,0,0,0,0,0,0,0,0,0.1591,0.1534,0.169,0.1657,0.1655,0.1738,0.1739,0.174,0.1661,0.1657,0.1652,0.1649,0.1701,0.1706,0.1712,0.1831,0,0,0.173,0.1733,0,0,0,0,0,0,0,0,0.1587,0.1597,0.1662,0.166,0.1657,0.1689,0.1701,0.1771,0.1662,0.1659,0.1651,0.1647,0.1702,0.1708,0.1726,0.1834,0.1836,0.1731,0.1734,0.1737,0.1739,0,0,0,0,0,0,0,0.1583,0.1594,0.171,0.1663,0.166,0.164,0.1644,0.1714,0.1703,0.1659,0.1653,0.1659,0.17,0.172,0.1726,0.1837,0.1731,0.1736,0.174,0.1742,0.2039,0.2043,0,0,0,0,0,0,0.1583,0.1591,0.1708,0.1711,0.1611,0.1646,0.1651,0.1683,0.1702,0.1701,0.1663,0.1656,0.1712,0.172,0.1728,0.1864,0.1737,0.1743,0.1746,0.2035,0.204,0.2044,0,0,0,0,0,0,0.158,0.1594,0.1706,0.1649,0.1662,0.1653,0.169,0.1686,0.1706,0.1705,0.1703,0.1686,0.1709,0.172,0.1805,0.1865,0.1745,0.1751,0.2029,0.2036,0.2042,0.2141,0,0,0,0,0,0,0.1575,0.1593,0.1639,0.1651,0.1666,0.1783,0.1694,0.169,0.1716,0.1707,0.1726,0.1725,0.1707,0.1796,0.1811,0.1871,0.1755,0.2024,0.2032,0.204,0.2132,0.215,0.2165,0,0,0,0,0,0.157,0.1667,0.1641,0.1656,0.1722,0.1786,0.1794,0.1771,0.1721,0.1766,0.1765,0.1724,0.1857,0.1806,0.1821,0.1885,0.202,0.203,0.2039,0.2125,0.2147,0.2165,0,0,0,0,0,0,0.1664,0.1668,0.164,0.1744,0.1765,0.1772,0.1829,0.1795,0.1832,0.1822,0.1792,0.1797,0.1887,0.1895,0.1838,0.1998,0.193,0.1943,0.199,0.201,0.2027,0.2022,0.176,0,0,0,0,0,0.1696,0.1748,0.1748,0.184,0.1851,0.1838,0.1866,0.1845,0.1866,0.1875,0.1881,0.1903,0.1949,0.1981,0.2023,0.2133,0.2134,0.2184,0.2201,0.2214,0.2226,0.228,0.2301,0.2077,0.2076,0.2076,0,0,0.1765,0.1773,0.1808,0.1859,0.1873,0.1925,0.1847,0.1908,0.1946,0.1885,0.1964,0.1969,0.1992,0.2088,0.2131,0.2097,0.2288,0.2227,0.2238,0.2242,0.2292,0.2313,0.2332,0.2083,0.2082,0.2081,0,0,0.1915,0.1928,0.2003,0.2018,0.2039,0.2029,0.2047,0.2059,0.2059,0.2137,0.2091,0.2137,0.2218,0.2235,0.2254,0.2407,0.2369,0.2422,0.2508,0.2561,0.2578,0.2594,0.2645,0.2664,0.2433,0.2434,0.2434,0,0.1998,0.2075,0.2046,0.2108,0.2131,0.2076,0.215,0.2166,0.2201,0.2218,0.2179,0.2276,0.2289,0.2386,0.2423,0.2442,0.2459,0.2419,0.2578,0.2593,0.2607,0.2655,0.2675,0.244,0.2439,0.2438,0.2438,0,0.2173,0.2227,0.2286,0.2317,0.2346,0.2415,0.2396,0.2429,0.2405,0.2398,0.2477,0.2489,0.2531,0.2553,0.2533,0.2647,0.2625,0.2583,0.2514,0.2635,0.268,0.2698,0.2448,0.2446,0.2444,0.2443,0,0,0.2386,0.2398,0.2419,0.2431,0.2448,0.249,0.2555,0.2594,0.2621,0.2647,0.2698,0.2766,0.2726,0.2748,0.2728,0.2775,0.289,0.2726,0.2726,0.2753,0.3013,0.3042,0.3064,0.2866,0.2869,0.2872,0.3009,0,0.2533,0.2642,0.2616,0.2725,0.2772,0.2719,0.2775,0.2791,0.2786,0.2826,0.2821,0.2868,0.2813,0.2825,0.287,0.2866,0.2941,0.2857,0.2912,0.2914,0.2905,0.3088,0.312,0.3249,0.3027,0.303,0.3032,0,0.2719,0.2748,0.286,0.2865,0.2884,0.2935,0.2966,0.3005,0.3022,0.3015,0.3037,0.3006,0.3069,0.3,0.3084,0.3027,0.3048,0.3049,0.3054,0.3056,0.2979,0.3092,0.3291,0.3309,0.306,0.3058,0.3056,0,0.2858,0.2926,0.3,0.3012,0.3021,0.3057,0.3063,0.3075,0.3099,0.3127,0.3141,0.3177,0.3196,0.3224,0.3203,0.3156,0.3289,0.322,0.3284,0.3284,0.3313,0.3311,0.3514,0.3332,0.3331,0.3331,0.3331,0,0.3024,0.3094,0.3062,0.3108,0.3183,0.3152,0.3228,0.3228,0.3238,0.3282,0.324,0.3282,0.3253,0.3292,0.3277,0.3346,0.3356,0.3351,0.3346,0.3353,0.3353,0.3365,0.3354,0.3336,0.3335,0.3334,0.3333,0,0.3192,0.3174,0.325,0.3251,0.3253,0.3308,0.3309,0.335,0.3341,0.3397,0.3408,0.3394,0.3438,0.342,0.3467,0.3456,0.3544,0.3529,0.3538,0.3533,0.3597,0.359,0.3813,0.3839,0.3642,0.3644,0.3645,0,0.3297,0.3349,0.3354,0.3378,0.3386,0.3428,0.3451,0.3422,0.3447,0.3467,0.3506,0.3545,0.3575,0.3647,0.3641,0.3676,0.3659,0.3735,0.3664,0.3669,0.3656,0.3652,0.3655,0.3748,0.3751,0.3752,0.3754,0,0.3485,0.3472,0.3505,0.3535,0.3562,0.3585,0.3604,0.3627,0.3598,0.3629,0.3671,0.3694,0.374,0.3779,0.3809,0.3814,0.3779,0.3776,0.3792,0.3799,0.3801,0.3797,0.3573,0.3771,0.3769,0.3768,0.3767,0.3766,0.3622,0.3664,0.3672,0.371,0.372,0.3737,0.3775,0.3769,0.3803,0.3837,0.3818,0.3867,0.3878,0.3914,0.3924,0.3962,0.3932,0.3956,0.3962,0.3967,0.3974,0.3797,0.3968,0.3967,0.3967,0.3966,0.3966,0,0.3804,0.3806,0.3841,0.3866,0.3895,0.3857,0.3875,0.3902,0.3945,0.3958,0.3987,0.4034,0.407,0.4066,0.4099,0.4129,0.4114,0.4139,0.4135,0.4136,0.4001,0.3982,0.4151,0.4151,0.415,0.415,0.415,0.415,0.3902,0.3969,0.3956,0.4027,0.4028,0.4074,0.4087,0.4102,0.4111,0.4165,0.4194,0.419,0.4195,0.4228,0.4259,0.4256,0.4269,0.43,0.4291,0.4164,0.4146,0.4128,0.411,0.4303,0.4304,0.4423,0.4424,0.4425]}]]